Alturas, CA

9:00 AM PST on December 11, 2019 (GMT -0800)
Alturas Municipal

Weather History for KAAT - October, 2019

Change the Weather History Date:

Tuesday, October 1, 2019

  Actual Average Record
Temperature  
Mean Temperature 40 °F 52 °F  
Max Temperature 53 °F 72 °F 91 °F (2010)
Min Temperature 27 °F 31 °F 17 °F (1950)
Degree Days  
Heating Degree Days 26 13  
Month to date heating degree days 13  
Since 1 July heating degree days 390  
Cooling Degree Days 0 0  
Month to date cooling degree days 0  
Year to date cooling degree days 156  
Moisture  
Dew Point 29 °F    
Average Humidity 79    
Maximum Humidity 100    
Minimum Humidity 35    
Precipitation  
Precipitation 0.00 in 0.02 in 0.54 in (1939)
Month to date precipitation 0.02  
Year to date precipitation 9.68  
Sea Level Pressure  
Sea Level Pressure 30.06 in    
Wind  
Wind Speed 2 mph ()    
Max Wind Speed 7 mph    
Max Gust Speed -    
Visibility 6.5 miles    
Events Fog    
T = Trace of Precipitation, MM = Missing Value Source: Averaged Metar Reports

Daily Weather History Graph

Daily Weather History Graph

Search for Another Location

Airport or City:

Astronomy

Oct. 01, 2019 Rise Set
Actual Time 6:58 AM PDT 6:44 PM PDT
Civil Twilight 6:31 AM PDT 7:11 PM PDT
Nautical Twilight 5:59 AM PDT 7:43 PM PDT
Astronomical Twilight 5:26 AM PDT 8:16 PM PDT
Moon 10:23 AM PDT (10/1) 8:58 PM PDT (10/1)
Length of Visible Light 12h 40m
Length of Day
11h 45m
Waxing Crescent, 13% of the Moon is Illuminated
Oct 1
Waxing Crescent
Oct 5
First Quarter
Oct 13
Full
Oct 21
Last Quarter
Oct 27
New

Hourly Weather History & Observations

Time (PDT) Temp. Windchill Dew Point Humidity Pressure Visibility Wind Dir Wind Speed Gust Speed Precip Events Conditions
12:13 AM 33.1 °F - 32.0 °F 96% 30.02 in 9.0 mi Calm Calm - N/A   Overcast
12:38 AM 32.0 °F - 30.9 °F 96% 30.02 in 8.0 mi Calm Calm - N/A   Overcast
12:55 AM 32.0 °F - 30.9 °F 96% 30.04 in 10.0 mi Calm Calm - N/A   Overcast
1:38 AM 30.9 °F - 30.0 °F 96% 30.03 in 7.0 mi Calm Calm - N/A   Overcast
1:55 AM 30.9 °F - 28.9 °F 92% 30.04 in 10.0 mi Calm Calm - N/A   Mostly Cloudy
2:03 AM 28.9 °F 25.2 °F 28.9 °F 100% 30.03 in 1.5 mi SSW 3.5 mph - N/A   Mostly Cloudy
2:06 AM 30.0 °F 26.5 °F 28.9 °F 96% 30.03 in 0.8 mi SSW 3.5 mph - N/A   Mostly Cloudy
2:16 AM 30.0 °F 26.5 °F 30.0 °F 100% 30.03 in 3.0 mi SW 3.5 mph - N/A   Mostly Cloudy
2:40 AM 32.0 °F - 30.9 °F 96% 30.03 in 0.8 mi Calm Calm - N/A   Mist
2:55 AM 32.0 °F - 32.0 °F 100% 30.04 in 0.2 mi Calm Calm - N/A Fog Fog
3:55 AM 30.0 °F - 28.9 °F 96% 30.04 in 0.2 mi Calm Calm - N/A Fog Light Freezing Fog
4:55 AM 30.0 °F - 30.0 °F 100% 30.04 in 0.2 mi Calm Calm - N/A Fog Light Freezing Fog
5:55 AM 30.0 °F - 28.9 °F 96% 30.06 in 0.2 mi Calm Calm - N/A Fog Light Freezing Fog
6:55 AM 28.9 °F 25.2 °F 28.0 °F 96% 30.07 in 0.2 mi West 3.5 mph - N/A Fog Light Freezing Fog
7:55 AM 28.9 °F 25.2 °F 28.9 °F 100% 30.09 in 0.2 mi SE 3.5 mph - N/A Fog Light Freezing Fog
8:55 AM 32.0 °F 28.7 °F 32.0 °F 100% 30.10 in 1.0 mi ESE 3.5 mph - N/A   Overcast
8:59 AM 32.0 °F - 32.0 °F 100% 30.06 in 3.0 mi Calm Calm - N/A   Overcast
9:34 AM 33.1 °F - 32.0 °F 96% 30.07 in 10.0 mi Calm Calm - N/A   Scattered Clouds
9:55 AM 34.0 °F - 34.0 °F 100% 30.11 in 10.0 mi Calm Calm - N/A   Partly Cloudy
10:55 AM 43.0 °F 40.3 °F 30.9 °F 62% 30.08 in 10.0 mi SSE 4.6 mph - N/A   Partly Cloudy
11:55 AM 46.0 °F 43.9 °F 28.0 °F 50% 30.07 in 10.0 mi Variable 4.6 mph - N/A   Partly Cloudy
12:55 PM 50.0 °F - 28.0 °F 43% 30.07 in 10.0 mi North 6.9 mph - N/A   Mostly Cloudy
1:55 PM 48.9 °F - 24.1 °F 38% 30.06 in 10.0 mi NE 4.6 mph - N/A   Mostly Cloudy
2:55 PM 51.1 °F - 26.1 °F 38% 30.04 in 10.0 mi North 5.8 mph - N/A   Scattered Clouds
3:55 PM 51.1 °F - 25.0 °F 36% 30.04 in 10.0 mi North 3.5 mph - N/A   Scattered Clouds
4:55 PM 50.0 °F - 23.0 °F 35% 30.04 in 10.0 mi Variable 3.5 mph - N/A   Clear
5:55 PM 50.0 °F - 24.1 °F 36% 30.05 in 10.0 mi NNW 5.8 mph - N/A   Clear
6:55 PM 45.0 °F 43.5 °F 24.1 °F 44% 30.07 in 10.0 mi North 3.5 mph - N/A   Clear
7:55 PM 41.0 °F 39.0 °F 27.0 °F 57% 30.09 in 10.0 mi NE 3.5 mph - N/A   Clear
8:55 PM 34.0 °F - 26.1 °F 73% 30.12 in 10.0 mi Calm Calm - N/A   Clear
9:55 PM 32.0 °F 28.7 °F 27.0 °F 82% 30.13 in 10.0 mi East 3.5 mph - N/A   Clear
10:55 PM 32.0 °F - 28.0 °F 85% 30.10 in 10.0 mi Calm Calm - N/A   Clear
11:55 PM 27.0 °F 23.0 °F 25.0 °F 92% 30.12 in 10.0 mi South 3.5 mph - N/A   Clear